User: anonymous   Login
Location: Unspecified
(0.0000°N, 0.0000°E)
Time: 02:50:04
(UTC+00:00)
Language:

Oscar 10/S400 - Orbit

View from above orbital plane
View from above orbital plane
View from above satellite
View from above satellite

Ground track
Ground track

The orbit data is extracted from the following two-line orbital elements,

1 14129U 83058B   17232.50433980 -.00000551 +00000-0 +00000-0 0  9990
2 14129 027.0939 023.8633 6026794 322.7614 006.3940 02.05869689229146
Epoch (UTC): 20 August 2017 12:06:14
Eccentricity: 0.6026794
inclination: 27.0939°
perigee height: 3992 km
apogee height: 35454 km
right ascension of ascending node: 23.8633°
argument of perigee: 322.7614°
revolutions per day: 2.05869689
mean anomaly at epoch: 6.3940°
orbit number at epoch: 22914

The dashed part of the orbit path shows where the satellite is in the earth's shadow,  

DLR